N6BSV-13 Weather Reports


time (UTC)temp
F
wind
direction
speed
knots
gust
knots
rain 1hr
in
rain 24hr
in
rain mn
in
humidity
%
barometer
mb
20260507232038 66 122 1.7 3.5 0.00 0.00 0.00 83 1014.1
20260507231034 66 124 1.7 2.6 0.00 0.00 0.00 84 1014.1
20260507230048 66 128 0.9 2.6 0.00 0.00 0.00 84 1014.1
20260507225103 65 121 1.7 3.5 0.00 0.00 0.00 84 1014.2
20260507224024 65 125 2.6 3.5 0.00 0.00 0.00 84 1014.3
20260507223039 65 124 1.7 4.3 0.00 0.00 0.00 84 1014.4
20260507222032 65 121 1.7 4.3 0.00 0.00 0.00 85 1014.5
20260507221048 66 121 1.7 5.2 0.00 0.00 0.00 84 1014.6
20260507220035 66 121 1.7 3.5 0.00 0.00 0.00 84 1014.8
20260507215056 66 124 1.7 5.2 0.00 0.00 0.00 83 1014.9
20260507214036 66 122 1.7 3.5 0.00 0.00 0.00 82 1015.0
20260507213041 66 124 1.7 2.6 0.00 0.00 0.00 83 1015.1
20260507212047 66 132 1.7 3.5 0.00 0.00 0.00 83 1015.2
20260507211024 67 124 1.7 3.5 0.00 0.00 0.00 81 1015.3
20260507210047 66 119 1.7 2.6 0.00 0.00 0.00 82 1015.4
20260507205052 66 123 0.9 2.6 0.00 0.00 0.00 82 1015.5
20260507204050 66 118 0.9 2.6 0.00 0.00 0.00 81 1015.5
20260507203035 66 111 1.7 3.5 0.00 0.00 0.00 81 1015.6
20260507202101 66 112 1.7 3.5 0.00 0.00 0.00 83 1015.7
20260507201046 66 129 0.9 2.6 0.00 0.00 0.00 83 1015.8
20260507200051 66 114 1.7 2.6 0.00 0.00 0.00 82 1015.9
20260507195057 65 113 1.7 2.6 0.00 0.00 0.00 83 1016.0
20260507194046 64 110 1.7 3.5 0.00 0.00 0.00 84 1016.2
20260507193105 65 111 1.7 3.5 0.00 0.00 0.00 83 1016.2
20260507192018 64 108 1.7 2.6 0.00 0.00 0.00 84 1016.3
20260507191108 64 113 1.7 2.6 0.00 0.00 0.00 84 1016.3
20260507190055 64 109 1.7 2.6 0.00 0.00 0.00 85 1016.4
20260507185044 64 113 1.7 3.5 0.00 0.00 0.00 86 1016.5
20260507184022 64 112 1.7 3.5 0.00 0.00 0.00 85 1016.6
20260507183017 64 114 1.7 2.6 0.00 0.00 0.00 85 1016.6
20260507182030 64 107 0.9 1.7 0.00 0.00 0.00 86 1016.6
20260507181044 64 113 0.9 2.6 0.00 0.00 0.00 86 1016.6
20260507180049 64 108 1.7 2.6 0.00 0.00 0.00 86 1016.6
20260507175104 64 98 0.9 1.7 0.00 0.00 0.00 85 1016.7
20260507174024 64 118 0.9 2.6 0.00 0.00 0.00 86 1016.7
20260507173039 64 109 1.7 2.6 0.00 0.00 0.00 86 1016.7
20260507172026 63 112 1.7 2.6 0.00 0.00 0.00 86 1016.7
20260507171040 64 112 1.7 2.6 0.00 0.00 0.00 85 1016.7
20260507170111 63 112 1.7 2.6 0.00 0.00 0.00 86 1016.7
20260507165024 63 113 0.9 2.6 0.00 0.00 0.00 86 1016.7
20260507164038 63 113 0.9 1.7 0.00 0.00 0.00 87 1016.8
20260507163025 62 110 1.7 2.6 0.00 0.00 0.00 87 1016.8
20260507162050 63 108 0.9 1.7 0.00 0.00 0.00 86 1016.8
20260507161115 63 118 0.9 1.7 0.00 0.00 0.00 87 1016.9
20260507160023 63 117 0.9 1.7 0.00 0.00 0.00 87 1016.9
20260507155028 62 110 0.9 1.7 0.00 0.00 0.00 89 1016.9
20260507154042 62 104 0.9 1.7 0.00 0.00 0.00 90 1016.8
20260507153029 62 104 0.9 0.9 0.00 0.00 0.00 89 1016.9
20260507152050 62 102 0.9 0.9 0.00 0.00 0.00 90 1017.0
20260507151220 61 106 0.0 0.9 0.00 0.00 0.00 91 1016.9
20260507150035 61 109 0.9 0.9 0.00 0.00 0.00 92 1016.9
20260507145022 60 104 0.9 0.9 0.00 0.00 0.00 93 1016.8
20260507144027 60 109 0.9 0.9 0.00 0.00 0.00 94 1016.7
20260507143041 60 93 0.0 0.9 0.00 0.00 0.00 94 1016.6
20260507142038 59 91 0.0 0.9 0.00 0.00 0.00 95 1016.6
20260507141015 59 82 0.0 0.9 0.00 0.00 0.00 95 1016.5
20260507140104 58 89 0.0 0.9 0.00 0.00 0.00 95 1016.4
20260507135044 58 106 0.0 0.9 0.00 0.00 0.00 95 1016.3
20260507134043 57 91 0.0 0.9 0.00 0.00 0.00 95 1016.2
20260507133026 57 95 0.0 0.9 0.00 0.00 0.00 95 1016.2
20260507132032 57 93 0.0 0.9 0.00 0.00 0.00 94 1016.1
20260507131107 57 88 0.0 0.9 0.00 0.00 0.00 94 1016.1
20260507130024 57 64 0.0 0.9 0.00 0.00 0.00 94 1016.0
20260507125022 57 85 0.0 0.9 0.00 0.00 0.00 94 1015.9
20260507124035 57 82 0.0 0.9 0.00 0.00 0.00 94 1015.9
20260507123058 57 92 0.0 0.9 0.00 0.00 0.00 94 1015.9
20260507122019 57 97 0.0 0.9 0.00 0.00 0.00 93 1015.9
20260507121058 58 0.0 0.9 0.00 0.00 0.00 93 1016.0
20260507120115 57 86 0.0 0.9 0.00 0.00 0.00 93 1016.0
20260507115051 58 90 0.0 0.9 0.00 0.00 0.00 93 1016.0
20260507114048 58 94 0.0 0.9 0.00 0.00 0.00 93 1016.0
20260507113026 58 79 0.0 0.9 0.00 0.00 0.00 93 1016.1
20260507112049 58 85 0.0 0.9 0.00 0.00 0.00 93 1016.1
20260507111018 58 79 0.9 0.9 0.00 0.00 0.00 92 1016.2
20260507110100 58 85 0.0 0.9 0.00 0.00 0.00 92 1016.3
20260507105057 58 85 0.0 0.9 0.00 0.00 0.00 92 1016.3
20260507104050 58 80 0.0 0.9 0.00 0.00 0.00 91 1016.3
20260507103030 58 106 0.0 0.9 0.00 0.00 0.00 91 1016.4
20260507102123 59 79 0.0 0.9 0.00 0.00 0.00 91 1016.4
20260507101022 59 106 0.0 0.9 0.00 0.00 0.00 91 1016.4
20260507100019 59 104 0.0 0.9 0.00 0.00 0.00 91 1016.4
20260507095107 59 63 0.0 0.9 0.00 0.00 0.00 91 1016.5
20260507094038 59 89 0.9 0.9 0.00 0.00 0.00 91 1016.6
20260507093041 59 88 0.0 0.9 0.00 0.00 0.00 91 1016.7
20260507092057 59 88 0.0 0.9 0.00 0.00 0.00 90 1016.8
20260507091034 59 98 0.0 0.9 0.00 0.00 0.00 90 1016.9
20260507090050 60 92 0.0 0.9 0.00 0.00 0.00 90 1017.0
20260507085123 60 89 0.0 0.9 0.00 0.00 0.00 89 1017.0
20260507084024 60 61 0.0 0.9 0.00 0.00 0.00 89 1017.1
20260507083029 60 81 0.0 0.9 0.00 0.00 0.00 89 1017.2
20260507082101 60 106 0.0 0.9 0.00 0.00 0.00 88 1017.2
20260507081022 60 68 0.0 0.9 0.00 0.00 0.00 88 1017.3
20260507075030 61 337 0.9 0.9 0.00 0.00 0.00 88 1017.3
20260507074036 61 323 0.0 0.9 0.00 0.00 0.00 88 1017.3
20260507073107 61 321 0.0 0.9 0.00 0.00 0.00 87 1017.4
20260507072107 61 0.0 0.9 0.00 0.00 0.00 87 1017.4
20260507071122 61 353 0.0 0.9 0.00 0.00 0.00 87 1017.4
20260507070109 61 314 0.0 0.9 0.00 0.00 0.00 86 1017.4
20260507065019 61 341 0.0 0.9 0.00 0.00 0.00 86 1017.5
20260507064138 61 312 0.0 0.9 0.00 0.00 0.00 85 1017.5
20260507063045 62 319 0.0 0.9 0.00 0.00 0.00 84 1017.5
20260507062108 62 289 0.0 0.9 0.00 0.00 0.00 84 1017.5
20260507061020 62 0.0 0.9 0.00 0.00 0.00 84 1017.5
20260507060033 62 309 0.0 0.9 0.00 0.00 0.00 85 1017.5
20260507055020 61 29 0.0 0.9 0.00 0.00 0.00 87 1017.5
20260507054044 62 0.0 0.9 0.00 0.00 0.00 90 1017.6
20260507053041 61 0.0 0.9 0.00 0.00 0.00 90 1017.5
20260507052036 61 97 0.9 0.9 0.00 0.00 0.00 90 1017.5
20260507051109 62 103 0.9 1.7 0.00 0.00 0.00 90 1017.5
20260507050055 62 115 0.9 1.7 0.00 0.00 0.00 89 1017.5
20260507045034 63 105 0.9 1.7 0.00 0.00 0.00 87 1017.5
20260507044152 63 102 0.0 0.9 0.00 0.00 0.00 84 1017.4
20260507043100 63 276 0.0 0.9 0.00 0.00 0.00 82 1017.4
20260507042032 64 3 0.0 0.9 0.00 0.00 0.00 81 1017.3
20260507041103 64 304 0.0 1.7 0.00 0.00 0.00 80 1017.2
20260507040032 64 167 0.0 0.9 0.00 0.00 0.00 79 1017.2
20260507035038 64 314 0.9 1.7 0.00 0.00 0.00 77 1017.0
20260507034101 64 266 0.0 0.9 0.00 0.00 0.00 75 1016.9
20260507033042 65 239 0.9 1.7 0.00 0.00 0.00 74 1016.9
20260507032026 65 142 0.9 0.9 0.00 0.00 0.00 72 1016.7
20260507031109 65 278 0.9 0.9 0.00 0.00 0.00 72 1016.6
20260507030054 65 295 0.9 0.9 0.00 0.00 0.00 74 1016.6
20260507025024 66 269 0.9 1.7 0.00 0.00 0.00 73 1016.5
20260507024019 66 299 0.9 1.7 0.00 0.00 0.00 72 1016.4
20260507023035 65 307 0.0 1.7 0.00 0.00 0.00 73 1016.3
20260507022042 65 247 0.0 0.9 0.00 0.00 0.00 80 1016.3
20260507021053 65 118 0.9 2.6 0.00 0.00 0.00 82 1016.2
20260507020041 65 114 1.7 2.6 0.00 0.00 0.00 81 1016.1
20260507015054 64 111 1.7 2.6 0.00 0.00 0.00 84 1016.1
20260507014059 65 114 1.7 2.6 0.00 0.00 0.00 82 1016.0
20260507013038 65 124 0.9 2.6 0.00 0.00 0.00 83 1015.9
20260507012017 65 116 1.7 2.6 0.00 0.00 0.00 83 1015.9
20260507011039 65 123 2.6 3.5 0.00 0.00 0.00 83 1015.8
20260507010046 65 123 1.7 3.5 0.00 0.00 0.00 84 1015.8
20260507005616 65 116 0.9 3.5 0.00 0.00 0.00 83 1015.8
20260507004525 65 110 1.7 3.5 0.00 0.00 0.00 84 1015.8
20260507003538 65 123 1.7 4.3 0.00 0.00 0.00 84 1015.8
20260507002527 65 120 2.6 5.2 0.00 0.00 0.00 83 1015.7
20260507001523 65 132 1.7 4.3 0.00 0.00 0.00 84 1015.7
20260507000554 65 124 2.6 4.3 0.00 0.00 0.00 82 1015.7
20260506235702 66 127 1.7 3.5 0.00 0.00 0.00 81 1015.7
20260506234604 66 125 2.6 4.3 0.00 0.00 0.00 81 1015.7
20260506233610 65 107 1.7 3.5 0.00 0.00 0.00 81 1015.7